Content
SEND FEEDBACK

Daily
Averages
Monthly
Summary
United States of America

BAYSIDE, NEW YORK


Home > North America > United States > New York
Elevation: 11 feet     Latitude: 40 46N     Longitude: 073 54W

WEATHER
 
SELECT A DAY
Number of Records: 194,926;   Date Range: 1/1/95 - 11/26/14
 
SHARE

PRINT THIS DATA

[ ← Previous Day ]
WEATHER ALMANAC - DECEMBER 7, 2013
[ Next Day → ]
[ °C ]   °F
Weather ElementAverageHighLow
Temperature37 °F41 °F (1:51 pm)33.1 °F (11:51 pm)
Dewpoint25.9 °F32 °F (2:46 am)15.1 °F (11:51 pm)
Humidity66.3 %87 % (2:46 am)44 % (7:51 pm)
Barometer30.30 in30.51 in (10:51 pm)30.12 in (1:51 am)
Wind Speed11.7 mph17.3 mph (11:51 am)
Wind Gust20.7 mph (10:51 am)
Weather ElementAverage
Visibility9.1 mi
Wind DirectionWNW (277.7 °)

Weather ElementTotal
Precipitation0.06 in
Heating Degree Days28 (Base 65)
Averaged from 30 records on December 7, 2013
WEATHER CONDITIONS BREAKOUT
WIND DIRECTION BREAKOUT
WEATHER BY HOUR - DECEMBER 7, 2013
[ °C ]   °F
Local TimeTemperatureDewpointHumidityBarometerVisibilityWind DirectionWind SpeedGust SpeedPrecipitationEventsConditions
1:51 AM36.0 °F30.9 °F82 %30.12 in10.0 miNNE (30°)12.7 mph0.01 inOvercast
2:46 AM35.6 °F32.0 °F87 %30.18 in3.0 miNorth (350°)9.2 mph0.00 inSnowLight Snow
2:49 AM35.6 °F32.0 °F87 %30.19 in2.5 miNNW (340°)10.4 mph0.00 inSnowLight Snow
2:51 AM36.0 °F32.0 °F86 %30.19 in3.0 miNNW (340°)11.5 mph0.00 inSnowLight Snow
3:02 AM35.6 °F32.0 °F87 %30.18 in3.0 miNorth (350°)9.2 mph0.01 inRain-SnowLight Rain
3:38 AM35.6 °F32.0 °F87 %30.17 in10.0 miNorth (10°)11.5 mph0.02 inRain-SnowLight Rain
3:51 AM36.0 °F32.0 °F86 %30.18 in10.0 miNorth (360°)9.2 mph0.02 inOvercast
4:29 AM35.6 °F32.0 °F87 %30.19 in10.0 miNorth (10°)6.9 mphOvercast
4:51 AM36.0 °F32.0 °F86 %30.19 in10.0 miNorth (10°)5.8 mphOvercast
5:51 AM36.0 °F32.0 °F86 %30.21 in10.0 miNNE (20°)6.9 mphMostly Cloudy
6:12 AM37.4 °F30.2 °F75 %30.22 in10.0 miNorth (350°)9.2 mphOvercast
6:51 AM37.0 °F30.9 °F79 %30.25 in10.0 miNNW (330°)6.9 mphOvercast
7:51 AM37.0 °F30.0 °F76 %30.26 in10.0 miNNW (330°)9.2 mphOvercast
8:35 AM37.4 °F28.4 °F70 %30.28 in10.0 miNNW (330°)12.7 mphMostly Cloudy
8:51 AM37.9 °F28.9 °F70 %30.29 in10.0 miNNW (330°)11.5 mphMostly Cloudy
9:51 AM37.9 °F28.0 °F68 %30.31 in10.0 miNNW (330°)12.7 mphMostly Cloudy
10:51 AM39.9 °F28.0 °F63 %30.30 in10.0 miNW (320°)13.8 mph20.7 mphMostly Cloudy
11:51 AM39.0 °F26.1 °F60 %30.31 in10.0 miNNW (330°)17.3 mphScattered Clouds
12:51 PM39.0 °F24.1 °F55 %30.31 in10.0 miNNW (340°)16.1 mphMostly Cloudy
1:51 PM41.0 °F25.0 °F53 %30.31 in10.0 miNNW (340°)15.0 mphMostly Cloudy
2:51 PM39.9 °F19.9 °F45 %30.32 in10.0 miNW (320°)15.0 mphScattered Clouds
3:51 PM39.9 °F19.9 °F45 %30.34 in10.0 miWNW (290°)13.8 mphScattered Clouds
4:51 PM39.0 °F19.9 °F46 %30.37 in10.0 miNW (320°)16.1 mphScattered Clouds
5:51 PM37.9 °F19.0 °F47 %30.40 in10.0 miNW (310°)12.7 mphScattered Clouds
6:51 PM37.9 °F18.0 °F45 %30.42 in10.0 miNW (310°)11.5 mphMostly Cloudy
7:51 PM37.0 °F17.1 °F44 %30.45 in10.0 miNW (320°)11.5 mphOvercast
8:51 PM36.0 °F17.1 °F46 %30.48 in10.0 miNNW (330°)11.5 mphMostly Cloudy
9:51 PM35.1 °F16.0 °F46 %30.48 in10.0 miNNW (330°)16.1 mphScattered Clouds
10:51 PM34.0 °F16.0 °F48 %30.51 in10.0 miNNW (330°)13.8 mphScattered Clouds
11:51 PM33.1 °F15.1 °F48 %30.51 in10.0 miNW (320°)10.4 mphScattered Clouds
Hourly data recorded from KLGA, located miles away from Bayside, New York







STORIES FROM OUR PARTNERS